Regional Weather Roundup
Issued by NWS Jackson, KY

Home | Current Version | Previous Version | Text Only | Print | Product List | Glossary Off
Versions: 1 2 3 4 5 6 7 8 9 10 11 12 13 14 15 16 17 18 19 20 21 22 23 24 25 26 27 28 29 30 31 32 33 34 35 36 37 38 39 40 41 42 43 44 45 46 47 48 49 50

000
ASUS43 KJKL 271110
RWRJKL

EAST KENTUCKY HOURLY WEATHER ROUNDUP
NATIONAL WEATHER SERVICE JACKSON KY
600 AM EST FRI FEB 27 2015

NOTE: "FAIR" INDICATES FEW OR NO CLOUDS BELOW 12,000 FEET WITH
NO SIGNIFICANT WEATHER AND/OR OBSTRUCTIONS TO VISIBILITY.

* THESE REPORTS ARE NOT UNDER NWS QUALITY CONTROL AND MAY NOT
  REPORT WEATHER SUCH AS PRECIPITATION AND FOG.

KYZ079-080-083-085-087-088-110-112-115-119-120-271200
...EASTERN KENTUCKY...

CITY           SKY/WX    TMP DP  RH WIND       PRES   REMARKS
JACKSON        CLOUDY    14   6  70 NW7       30.37R WCI   4
LONDON         CLOUDY    17   7  64 NW10      30.39R WCI   5
SOMERSET*      PTCLDY    14   9  79 N6        30.45R WCI   5
MONTICELLO*    LGT SNOW  18  11  74 N12       30.45R WCI   6
MIDDLESBORO*   FLURRIES  23  17  77 N6        30.36R WCI  15
HAZARD APT*    CLOUDY    18  12  79 CALM      30.38R
BLACK MTN*       N/A     12  12 100 N6          N/A  WCI   3
PIKEVILLE APT* FLURRIES  16  12  86 N6        30.35R WCI   7
BIG SANDY*     CLOUDY    17  10  76 N5        30.38R WCI  10
MOREHEAD APT*  SUNNY     10   3  72 VRB3      30.45R
$$

KYZ035-036-041-042-044-050-067-078-099-271200
...CENTRAL KENTUCKY...

CITY           SKY/WX    TMP DP  RH WIND       PRES   REMARKS
MT STERLING*   CLEAR     10   5  79 N3        30.45R
FLEMING/MASON* CLEAR      7   3  85 N3        30.46R
DANVILLE*      CLEAR      9   5  85 N5        30.45R WCI   0
RICHMOND*      CLEAR     10   5  79 CALM      30.43R
LEXINGTON      CLOUDY     8   4  83 CALM      30.45R
FRANKFORT      PTCLDY     9   4  80 NW5       30.46R WCI   1
$$

KYZ091>093-OHZ055-061-077-WVZ005-015-034-035-042-271200
...SOUTHERN OHIO/WEST VIRGINIA...

CITY           SKY/WX    TMP DP  RH WIND       PRES   REMARKS
COVINGTON      MOCLDY    11   4  73 NW8       30.44R WCI  -1
COLUMBUS       LGT SNOW   6   2  83 CALM      30.44R
DAYTON         CLOUDY     7   2  80 NW5       30.43R WCI  -2
WILMINGTON     CLOUDY     8   3  80 W3        30.42R
HUNTINGTON     CLOUDY    12   6  77 N8        30.43R WCI   0
CHARLESTON     LGT SNOW  15   9  76 N8        30.38R WCI   4
PINEVILLE*     LGT SNOW  23  19  86 MISG      30.33R
BECKLEY        LGT SNOW  17  12  80 N9        30.21R WCI   6
BLUEFIELD      LGT SNOW  20  14  77 NW8       30.19R WCI  10
$$

VAZ002-007-008-TNZ017-027-036-066-071-271200
...SOUTHWEST VIRGINIA/EAST TENNESSEE...

CITY           SKY/WX    TMP DP  RH WIND       PRES   REMARKS
WISE*          FLURRIES  21  19  93 NW8       30.23R WCI  12
JONESVILLE*    CLOUDY    25  19  80 NW5       30.33R WCI  19
ABINGDON*      CLOUDY    27  19  74 NW5       30.23R WCI  21
BRISTOL        FLURRIES  36  20  52 N7        30.28R WCI  30
KNOXVILLE      CLOUDY    28  20  71 N10       30.33R WCI  19
OAK RIDGE      CLEAR     26  18  71 N5        30.36R WCI  20
CROSSVILLE     CLOUDY    20  12  71 N10       30.32R WCI   9
NASHVILLE      MOCLDY    20  13  74 N10       30.47R WCI   9
$$

...KEY TO REMARKS...
VSB - VISIBILITY IN MILES
WCI - WIND CHILL INDEX
HX  - HEAT INDEX

$$


USA.gov is the U.S. government's official web portal to all federal, state and local government web resources and services.